Location: Milton Keynes
(52.0316°N, 0.7531°W)
Time: 15:09:15
(UTC+00:00)

Envisat - Pass Details

Date: 29 November 2022
Orbit: 763 x 765 km, 98.2° (Epoch: 06 February)

Event Time Altitude Azimuth Distance (km) Brightness Sun altitude
Rises 03:28:19 0° 22° (NNE) 3,247 6.7 -38.5°
Reaches altitude 10° 03:30:57 10° 33° (NNE) 2,316 5.9 -38.1°
Enters shadow 03:33:51 25° 64° (ENE) 1,534 5.0 -37.7°
